Location: Ittersbach
(48.8665°N, 8.5073°E)
Time: 05:03:51
(UTC+00:00)

Daily predictions for brighter satellites

Satellite Brightness Start Highest point End
(mag) Time Altitude Azimuth Time Altitude Azimuth Time Altitude Azimuth
SL-16 R/B 3.8 03:19:10 29° NE 03:19:10 29° NE 03:24:01 10° ESE
Cosmos 2082 Rocket 3.5 03:23:08 36° ENE 03:23:08 36° ENE 03:26:57 10° NE
USA 234 3.9 03:23:36 10° ENE 03:28:36 45° NNE 03:28:36 45° NNE
Cosmos 1980 Rocket 4.5 03:44:55 13° S 03:44:55 13° S 03:45:26 10° SSE
NOSS 3-1 (C) 3.9 03:52:30 67° NNW 03:53:39 83° NE 04:02:25 10° SE
Cosmos 841 Rocket 4.0 04:00:24 49° SSE 04:01:21 57° ESE 04:06:30 10° NNE
COSMOS 2455 3.1 04:07:00 55° S 04:07:00 55° S 04:11:48 10° SSE
Cosmos 2360 Rocket 3.5 04:09:26 23° N 04:12:06 35° NE 04:17:13 10° ESE
Cosmos 2333 Rocket 3.0 04:11:00 33° N 04:13:14 50° NE 04:18:47 10° SE
ATLAS 3B R/B 4.2 04:14:24 23° NNW 04:17:36 31° NNE 04:24:18 10° ENE
Nadezhda 4 Rocket 4.0 04:12:02 10° S 04:18:21 84° E 04:24:39 10° N
NOSS 3-4 (A) 4.5 04:23:03 28° N 04:23:03 28° N 04:27:40 10° NE
NOSS 3-4 (C) 4.5 04:23:12 28° N 04:23:12 28° N 04:27:51 10° NE
Cosmos 1892 Rocket 4.4 04:19:02 10° SSE 04:23:14 49° E 04:27:30 10° NNE
Cosmos-2242 4.3 04:24:05 19° NNE 04:26:38 37° ENE 04:30:33 10° SE
Cosmos 1898 Rocket 4.0 04:29:28 43° SSW 04:29:28 43° SSW 04:33:15 10° S
Cosmos 2219 Rocket 3.7 04:25:49 16° N 04:29:31 31° NE 04:34:29 10° ESE
COSMO-SKYMED 1 3.0 04:27:25 10° SSE 04:31:26 56° ENE 04:32:40 39° NNE
IRS-1D 3.6 04:28:38 10° NNE 04:33:39 72° ESE 04:38:44 10° S
Cosmos 2322 Rocket 2.8 04:32:25 25° NNW 04:35:41 54° NE 04:41:14 10° SE
Orbus 7S? 4.1 04:48:21 31° NE 04:48:21 31° NE 04:50:17 10° E
Cosmos 1937 Rocket 3.6 04:49:25 49° WSW 04:49:28 49° WSW 04:54:23 10° S
Cosmos 858 Rocket 4.4 04:49:23 46° NW 04:50:47 66° WSW 04:55:55 10° S
BREEZE M DEB (TANK) 4.4 04:50:09 10° SSE 04:51:31 14° SE 04:53:17 10° E
USA 59 Rocket 1.6 04:54:18 22° SSW 04:54:18 22° SSW 04:57:00 10° S
BREEZE-M DEB (TANK) 4.2 04:55:04 21° ESE 04:55:04 21° ESE 04:55:52 10° ESE
Meteor 2-3 Rocket 3.6 04:48:26 10° SSW 04:54:10 79° WNW 04:59:53 10° N
Meteor 1-26 Rocket 4.2 04:49:30 10° N 04:55:04 82° ENE 05:00:46 10° SSE
Cosmos 1484 Rocket 4.0 04:52:37 10° NNE 04:55:49 36° E 04:58:57 10° SSE
Meteor 2-20 Rocket 4.4 04:51:08 10° N 04:56:56 77° E 05:02:38 10° SSE
Cosmos 2058 Rocket 3.0 04:54:41 19° N 04:57:48 85° E 05:02:12 10° S
SKYMED 2 3.7 04:55:37 10° S 04:59:51 51° W 05:00:15 49° W
COSMOS 2406 3.1 04:55:16 15° SW 05:00:03 66° WNW 05:05:44 10° NNE
NOSS 3-1 (A) 4.0 04:57:15 27° NW 05:01:42 84° SW 05:10:33 10° SE
SL-16 R/B 2.2 05:01:03 32° NW 05:03:37 61° WSW 05:09:10 10° S
Cosmos 2082 Rocket 2.7 05:05:01 35° WNW 05:05:49 37° NW 05:11:01 10° NNE
CZ-4 R/B 3.6 05:02:30 10° N 05:07:07 66° WNW 05:11:41 10° SSW
SeaSat 1 4.1 05:05:18 10° N 05:07:30 18° NNW 05:07:30 18° NNW
Cosmos 1627 Rocket 4.3 05:02:51 10° SSW 05:08:58 78° W 05:15:09 10° N
USA 234 3.8 05:06:07 10° ENE 05:12:16 45° N 05:15:57 23° NW
BREEZE-M DEB (TANK) 2.5 05:12:01 62° WSW 05:12:24 88° S 05:14:41 10° ENE
Okean 1 2.8 05:11:24 29° NNW 05:13:06 81° W 05:16:39 10° S
Helios 1A Rocket 2.5 05:12:34 10° S 05:15:48 48° W 05:15:55 48° W
CZ-2C R/B 4.4 05:12:26 10° NNW 05:13:16 13° NNW 05:13:16 13° NNW
Cosmos 1814 Rocket 4.5 05:11:24 10° S 05:16:33 63° ESE 05:21:48 10° NNE
NOAA 12 4.1 05:12:15 10° N 05:17:26 57° WNW 05:22:35 10° SSW
DMSP B5D1-3 4.5 05:14:21 10° SSE 05:19:28 89° WSW 05:24:37 10° NNW
Cosmos 2285 Rocket 4.0 05:17:09 10° NNW 05:23:34 88° ENE 05:30:00 10° SSE
BREEZE-M DEB (TANK) 2.6 05:23:26 43° W 05:24:13 79° N 05:29:10 10° E
BREEZE-M DEB (TANK) 3.1 05:24:35 27° WSW 05:26:04 48° S 05:32:28 10° ESE
Cosmos 2278 4.0 05:24:16 22° NW 05:27:37 46° WSW 05:32:57 10° S
IRIDIUM 103 4.4 05:24:21 10° S 05:29:33 82° E 05:34:48 10° N
SL-4 R/B 1.2 05:28:33 38° WNW 05:29:38 83° SSW 05:32:49 10° ESE
Cosmos 2151 4.3 05:27:40 10° SSE 05:31:29 41° E 05:35:22 10° NNE
Cosmos 1758 Rocket 3.8 05:28:51 10° S 05:33:15 74° E 05:37:38 10° NNE
Cosmos 2026 Rocket 4.1 05:28:20 10° SSW 05:34:10 49° WNW 05:40:07 10° N
NOSS 8 (A) 4.0 05:33:10 35° NW 05:34:16 72° SW 05:37:29 10° SE
Cosmos 2221 3.0 05:31:22 10° N 05:35:28 58° ENE 05:39:33 10° SSE
Thor Agena Rocket 4.1 05:34:37 10° NNE 05:39:38 59° ESE 05:44:34 10° S
Cosmos 405 Rocket 2.1 05:39:42 10° SSW 05:42:58 75° WNW 05:46:15 10° N
Cosmos 841 Rocket 4.4 05:40:31 16° W 05:43:29 26° NW 05:47:54 10° N
Cosmos 1707 3.4 05:43:04 10° N 05:46:05 42° ENE 05:49:05 10° SSE
IRIDIUM 106 4.3 05:42:41 10° S 05:47:53 72° W 05:53:07 10° N
Cosmos 158 Rocket 4.0 05:43:19 10° SSW 05:48:39 86° WNW 05:53:55 10° NNE
KORONAS-FOTON 4.1 05:50:22 10° N 05:53:42 56° ENE 05:57:00 10° SSE
Cosmos 2360 Rocket 2.5 05:51:12 12° NW 05:56:13 47° WSW 06:01:33 10° S
Cosmos 1626 Rocket 3.6 05:51:55 10° SSW 05:56:16 56° WNW 06:00:37 10° N
S3M 4.2 05:50:07 10° N 05:56:20 76° E 06:02:27 10° SSE
Cosmos 2333 Rocket 3.0 05:53:03 14° NW 05:57:19 32° WSW 06:02:20 10° SSW
Cosmos 1553 Rocket 4.2 05:51:39 10° NNW 05:57:52 56° W 06:04:05 10° SSW
SMAP 3.1 05:55:19 10° NNE 06:00:00 86° E 06:04:40 10° SSW
Cosmos 1833 4.2 05:55:00 10° SSW 06:00:38 87° WNW 06:06:24 10° NNE
Cosmos 1092 Rocket 4.5 05:55:27 10° SW 06:01:12 37° WNW 06:06:58 10° N
SL-08 R/B 4.3 05:58:44 10° SE 06:03:09 47° ENE 06:07:38 10° N
Cosmos-2242 4.1 06:00:27 11° NW 06:03:27 22° W 06:06:43 10° SW
Cosmos 1842 3.7 06:01:04 10° N 06:04:21 51° ENE 06:07:35 10° SSE
Landsat 7 3.9 06:00:36 10° NNE 06:05:18 80° ESE 06:09:57 10° S
Cosmos 2237 Rocket 3.8 06:02:05 10° NNW 06:06:55 28° NE 06:11:44 10° ESE
COSMO-SKYMED 1 4.1 06:04:34 10° SW 06:07:06 16° W 06:08:59 12° WNW
Cosmos 1125 Rocket 3.5 06:02:55 10° NNW 06:08:13 82° WSW 06:13:26 10° SSE
ATLAS 3B R/B 3.4 06:02:05 10° NW 06:09:57 63° NE 06:17:25 10° ESE
Meteor 1-10 Rocket 4.4 06:04:35 10° NNW 06:10:32 87° W 06:16:29 10° S
Cosmos 2219 Rocket 2.4 06:08:15 10° NW 06:13:46 56° WSW 06:19:15 10° S
Meteor 1-19 Rocket 4.3 06:10:07 10° NNW 06:15:54 75° W 06:21:49 10° S
Cosmos 2322 Rocket 3.2 06:14:36 10° NW 06:19:24 28° WSW 06:24:09 10° SSW
BREEZE-M DEB (TANK) 3.9 06:04:26 10° W 06:21:17 85° N 06:25:26 10° E
Okean 1-7 Rocket 3.6 06:21:31 10° SSW 06:26:01 75° W 06:30:30 10° N
YAOGAN 11 4.3 06:22:33 10° SSE 06:26:53 76° ENE 06:31:12 10° NNW
IGS 5A 4.3 06:23:56 10° N 06:27:17 26° WNW 06:30:38 10° WSW
Cosmos 1812 Rocket 4.0 06:23:28 10° NNW 06:27:33 42° W 06:31:37 10° SSW
Cosmos 1484 Rocket 3.9 06:26:07 10° NNW 06:28:27 17° WNW 06:30:46 10° WSW
Cosmos 2322 3.8 06:23:17 10° NNW 06:28:58 85° ENE 06:34:39 10° SSE
SJ-12 3.8 06:28:29 10° N 06:32:15 58° WNW 06:35:59 10° SSW
Cosmos 2266 Rocket 4.1 06:26:07 10° SSW 06:32:27 65° WNW 06:38:44 10° N
Cosmos 1437 Rocket 3.0 06:30:31 10° NNW 06:33:45 37° W 06:36:58 10° SSW
Cosmos 1602 Rocket 4.0 06:30:36 10° SSW 06:34:49 43° WNW 06:39:04 10° N
ATLAS 2AS CENTAUR R/B 2.8 06:29:11 10° SW 06:36:15 88° NW 06:43:10 10° NE
